Location: Unspecified
(0.0000°N, 0.0000°E)
Time: 11:40:48
(UTC+00:00)

ISS - Pass Details

Date: 18 August 2017
Orbit: 401 x 408 km, 51.6° (Epoch: 23 August)

Event Time Altitude Azimuth Distance (km) Brightness Sun altitude
Rises 19:42:54 0° 328° (NNW) 2,293 0.7 -24.1°
Reaches altitude 10° 19:44:59 10° 331° (NNW) 1,438 -0.5 -24.6°
Enters shadow 19:46:08 20° 334° (NNW) 975 -1.5 -24.9°
